Regional Weather Roundup
Issued by NWS

Home | Current Version | Previous Version | Text Only | Print | Product List | Glossary Off
Versions: 1 2 3 4 5 6 7 8 9 10 11 12 13 14 15 16 17 18 19 20 21 22 23 24 25 26 27 28 29 30 31 32 33 34 35 36 37 38 39 40 41 42 43 44 45 46 47 48 49 50

000
ASUS45 KBOU 250707
RWRCO

WEATHER ROUNDUP FOR COLORADO
NATIONAL WEATHER SERVICE DENVER/BOULDER CO
1200 AM MST SUN JAN 25 2015

NOTE: "FAIR" INDICATES FEW OR NO CLOUDS BELOW 12000 FEET WITH NO
SIGNIFICANT WEATHER AND/OR OBSTRUCTIONS TO VISIBILITY.

COZ001>005-013-030-031-250800-
...NORTHWEST COLORADO...

CITY           SKY/WX    TMP DP  RH WIND       PRES   REMARKS
CRAIG            N/A     22  17  81 MISG      30.35F
HAYDEN         CLOUDY    27  14  59 CALM      30.34S
MEEKER         CLEAR     12   8  84 CALM      30.37S
MOUNT WERNER   NOT AVBL
STEAMBOAT SPGS CLOUDY    25  16  70 CALM      30.32F
WALDEN         PTCLDY    27  21  80 CALM      30.26F
$$

COZ006>008-011-250800-
...WEST CENTRAL VALLEYS...

CITY           SKY/WX    TMP DP  RH WIND       PRES   REMARKS
GRAND JUNCTION PTCLDY    26  17  68 E8        30.38S WCI  18
MONTROSE       CLEAR     20  14  77 SE7       30.41S WCI  11
EAGLE          CLOUDY    27  19  74 CALM      30.39S
RIFLE          MOCLDY    25  16  68 SW5       30.40S WCI  19
DELTA          CLEAR     25  16  68 CALM      30.42R
NUCLA          CLEAR     27  18  69 E7        30.40S WCI  19
$$

COZ017>023-064>068-250800-
...SOUTHWEST COLORADO...

CITY           SKY/WX    TMP DP  RH WIND       PRES   REMARKS
DURANGO        CLEAR     19  16  88 NE5       30.28S WCI  12
CORTEZ         CLEAR     21  16  81 E5        30.28R WCI  15
PAGOSA SPRINGS CLEAR     18  16  90 CALM      30.28F
TELLURIDE      PTCLDY    28  10  45 SE5       30.39S WCI  23
WOLF CREEK PAS NOT AVBL
$$

COZ009-010-012-014-032>034-037-058>063-250800-
...CENTRAL COLORADO...

CITY           SKY/WX    TMP DP  RH WIND       PRES   REMARKS
ASPEN          CLOUDY    26  18  71 NE3       30.35S
BUENA VISTA    PTCLDY    25  17  72 W6        30.24R WCI  18
COPPER MTN     CLOUDY    23  18  80 MISG      30.31S HAZE
BERTHOUD PASS  HVY SNOW  16  10  79 NW48      30.20S VSB 1/4 WCI  -8
COTTONWOOD PAS PTCLDY    36  18  48 W22G35    30.25S
GUNNISON       PTCLDY     0 -54   6 CALM      30.41F
KREMMLING      CLOUDY    21  12  68 N3        30.33F
LEADVILLE      MOCLDY    26  18  71 N12       30.32R WCI  16
MONARCH PASS   PTCLDY    14   7  73 MISG      30.39F
SALIDA         PTCLDY    40  17  38 W16G22    30.29S
SUNLIGHT       CLOUDY    27  21  80 CALM        N/A
WILKERSON PASS MOCLDY    25  14  63 NW6       30.28R WCI  18
$$

COZ069>075-250800-
...SAN LUIS VALLEY/SANGRE DE CRISTO MOUNTAINS...

CITY           SKY/WX    TMP DP  RH WIND       PRES   REMARKS
ALAMOSA        MOCLDY    10   6  84 NW5       30.28F WCI   2
LA VETA PASS   NOT AVBL
SAGUACHE       MOCLDY    32  18  55 N17G25    30.28F WCI  21
$$

COZ035-036-038>040-250800-
...NORTHERN COLORADO FRONT RANGE...

CITY           SKY/WX    TMP DP  RH WIND       PRES   REMARKS
DENVER INTL AP MOCLDY    33  27  78 S6        30.15F WCI  28
DMNS CITY PARK   N/A     35  27  73 SE3G9     30.15F
AURORA         PTCLDY    30  27  90 SE8       30.17S WCI  22
FRONT RANGE AP NOT AVBL
ERIE MUNI ARPT PTCLDY    33  28  81 S7        30.15F WCI  27
BOULDER MUN AP PTCLDY    36  28  75 N3        30.14F
CENTENNIAL     PTCLDY    33  27  78 SE6       30.17S WCI  28
BROOMFIELD     PTCLDY    34  28  80 SE8       30.16F WCI  27
FORT COLLINS   PTCLDY    36  25  64 SW8       30.14R
LONGMONT       PTCLDY    33  25  73 SW6       30.16F WCI  27
$$

COZ041-046-047-076>085-087-088-250800-
...PIKES PEAK/PALMER DIVIDE AND SOUTHERN FOOTHILLS...

CITY           SKY/WX    TMP DP  RH WIND       PRES   REMARKS
COLO. SPRINGS  PTCLDY    34  25  69 NE18      30.15R WCI  23
A. F. ACADEMY  PTCLDY    34  21  59 N14       30.15R WCI  24
ELLICOTT       CLEAR    N/A N/A N/A NE22      30.12S
FALCON         PTCLDY    29  25  82 N12G18    30.17S WCI  20
FORT CARSON    CLEAR     35  23  62 N14       30.12R WCI  26
LIMON          FLURRIES  33  27  78 NW18      30.15F WCI  22
MONUMENT HILL  CLEAR     28  25  86 E3        30.16F
TRINIDAD       CLEAR     31  22  69 NW6       30.16R WCI  25
$$

COZ042>045-048>051-090-091-250800-
...NORTHEAST COLORADO...

CITY           SKY/WX    TMP DP  RH WIND       PRES   REMARKS
GREELEY ARPT   PTCLDY    37  25  60 NE12G18   30.11F
AKRON          MOCLDY    36  27  69 NW25G36   30.09F
BURLINGTON     CLOUDY    38  27  64 NW22      30.07F
WRAY           CLEAR     39  29  66 NW20G26   30.05S
STERLING       MOCLDY    41  32  70 NW17      30.09F
HOLYOKE        CLEAR     41  30  65 NW20G25   30.03S
FORT MORGAN    CLOUDY    39  27  61 N23G29    30.13S
$$

COZ086-089-092>099-250800-
...SOUTHEAST COLORADO...

CITY           SKY/WX    TMP DP  RH WIND       PRES   REMARKS
PUEBLO         PTCLDY    31  24  75 NE8       30.14R WCI  23
LA JUNTA       PTCLDY    39  29  67 N12       30.14S
LAMAR          CLOUDY    42  28  57 N13G21    30.08F
SPRINGFIELD      N/A     38  29  70 N17       30.11R
$$



USA.gov is the U.S. government's official web portal to all federal, state and local government web resources and services.